[[{"header":{"parameterUnit":"m.s-1","parameterCategory":1,"la1":30.2992,"la2":30.254,"lo1":-89.0895,"lo2":-89.0443,"dy":0.0025,"dx":0.0025,"nx":19,"ny":19,"refTime":"2026-03-31T09:00:00:Z","depth":0,"parameterNumber":2,"parameterNumberName":"U-component_of_WINDS"},"data":[0,0,0,-3.6904,-3.6906,-3.6998,-3.6999,-3.7113,-3.7115,0,0,0,0,0,0,0,0,0,0,0,-3.6878,-3.6879,-3.6904,-3.6906,-3.6998,-3.6999,-3.7113,-3.7115,0,0,0,0,0,0,0,0,0,0,0,-3.6877,-3.6878,-3.688,-3.6907,-3.6998,-3.6999,-3.7113,-3.7044,0,0,0,0,0,0,0,0,0,0,-3.6955,-3.6932,-3.6878,-3.688,-3.6907,-3.6998,-3.6999,-3.7041,-3.7048,-3.7071,0,-3.7095,0,-3.7107,-3.7122,-3.7123,0,0,0,-3.6905,-3.6926,-3.695,-3.688,-3.6908,-3.6998,-3.6956,-3.7045,-3.7054,-3.7082,-3.7096,-3.7101,-3.7109,-3.7123,-3.7124,-3.7267,-3.7268,0,0,-3.69,-3.6894,-3.6944,-3.6956,-3.6945,-3.6953,-3.6959,-3.705,-3.7065,-3.7097,-3.7103,-3.711,-3.7124,-3.7125,-3.7267,-3.7267,0,0,0,-3.6886,-3.6891,-3.6913,-3.6951,-3.6968,-3.6956,-3.6963,-3.7061,-3.7069,-3.7105,-3.7112,-3.7124,-3.7126,-3.7266,-3.7267,-3.7297,0,0,0,-3.6883,-3.6883,-3.6911,-3.6908,-3.6966,-3.7016,-3.6971,-3.7062,-3.7073,-3.7111,-3.7125,-3.7127,-3.7265,-3.7266,-3.7295,-3.7311,0,0,0,-3.6871,-3.6881,-3.6896,-3.6908,-3.6947,-3.7015,-3.7028,-3.7065,-3.7077,-3.7123,-3.7127,-3.7264,-3.7266,-3.7292,-3.7308,-3.7346,0,0,0,-3.6857,-3.6921,-3.6896,-3.6971,-3.6947,-3.7035,-3.7027,-3.7093,-3.7136,-3.7125,-3.7265,-3.7267,-3.7292,-3.7305,-3.7343,-3.7375,-3.7389,0,0,-3.6935,-3.693,-3.6975,-3.6955,-3.7046,-3.7021,-3.7116,-3.7159,-3.7168,-3.7233,-3.7236,-3.7295,-3.7307,-3.7345,-3.7472,-3.7482,0,0,0,-3.6997,-3.7029,-3.7054,-3.7096,-3.7132,-3.7163,-3.7194,-3.7209,-3.7265,-3.7201,-3.7321,-3.7328,-3.7351,-3.7366,-3.7375,-3.7393,-3.7274,-3.7274,-3.7274,-3.7098,-3.7107,-3.718,-3.7199,-3.724,-3.727,-3.7303,-3.7329,-3.7325,-3.7354,-3.7372,-3.7448,-3.7466,-3.7473,-3.7491,-3.7392,-3.7392,-3.7392,-3.7392,-3.721,-3.7255,-3.725,-3.7319,-3.7327,-3.7384,-3.7415,-3.7411,-3.7463,-3.7435,-3.7455,-3.7421,-3.7484,-3.7501,-3.7395,-3.7394,-3.7394,-3.7394,-3.7394,-3.7274,-3.7297,-3.7317,-3.7378,-3.7423,-3.744,-3.7491,-3.7497,-3.7502,-3.7522,-3.7541,-3.754,-3.7538,-3.7531,-3.7532,-3.7532,-3.7532,-3.7532,-3.7533,-3.7332,-3.7354,-3.7396,-3.7441,-3.7467,-3.7503,-3.7535,-3.756,-3.759,-3.759,-3.759,-3.7581,-3.749,-3.7465,-3.7537,-3.7536,-3.7535,-3.7535,-3.7535,-3.7437,-3.7415,-3.7481,-3.7508,-3.7559,-3.7602,-3.761,-3.7662,-3.7684,-3.7708,-3.7696,-3.7629,-3.7624,-3.7616,-3.7596,-3.7696,-3.7696,-3.7696,-3.7696,-3.7489,-3.7488,-3.7557,-3.7599,-3.7641,-3.7655,-3.7726,-3.7751,-3.7772,-3.7786,-3.7773,-3.7747,-3.774,-3.7739,-3.7729,-3.7709,-3.7836,-3.7837,-3.7837,-3.7553,-3.7557,-3.7617,-3.764,-3.7681,-3.7714,-3.7781,-3.7827,-3.7847,-3.7842,-3.7796,-3.779,-3.7748,-3.7735,-3.7726,-3.7711,-3.7675,0,0]},{"header":{"parameterUnit":"m.s-1","parameterCategory":1,"la1":30.2992,"la2":30.254,"lo1":-89.0895,"lo2":-89.0443,"dy":0.0025,"dx":0.0025,"nx":19,"ny":19,"refTime":"2026-03-31T09:00:00:Z","depth":0,"parameterNumber":3,"parameterNumberName":"V-component_of_WINDS"},"data":[0,0,0,3.2004,3.2009,3.2231,3.2232,3.2504,3.2506,0,0,0,0,0,0,0,0,0,0,0,3.193,3.1932,3.2004,3.2009,3.2231,3.2232,3.2504,3.2506,0,0,0,0,0,0,0,0,0,0,0,3.1929,3.1931,3.1933,3.201,3.2231,3.2232,3.2503,3.234,0,0,0,0,0,0,0,0,0,0,3.2127,3.205,3.1931,3.1933,3.2011,3.223,3.2232,3.2333,3.235,3.2398,0,3.2437,0,3.2476,3.2524,3.2525,0,0,0,3.2016,3.2035,3.2102,3.1934,3.2013,3.223,3.2133,3.2343,3.2363,3.2422,3.2441,3.2452,3.2481,3.2526,3.2527,3.2782,3.2782,0,0,3.2004,3.1966,3.2088,3.2115,3.2078,3.2126,3.214,3.2355,3.2374,3.2442,3.2459,3.2485,3.2527,3.2529,3.2781,3.2782,0,0,0,3.1964,3.1957,3.2019,3.2103,3.2144,3.2132,3.2148,3.2365,3.2388,3.2462,3.2488,3.2529,3.2532,3.278,3.2781,3.2789,0,0,0,3.1957,3.1934,3.2014,3.1992,3.214,3.2257,3.2152,3.2373,3.2399,3.2487,3.2529,3.2534,3.2779,3.278,3.2787,3.28,0,0,0,3.1919,3.1929,3.1958,3.199,3.2084,3.2254,3.229,3.238,3.2415,3.2525,3.2535,3.2778,3.278,3.2785,3.2796,3.2858,0,0,0,3.1867,3.196,3.1958,3.2074,3.2082,3.2257,3.2289,3.2422,3.2517,3.253,3.2779,3.2781,3.2784,3.2795,3.2855,3.2904,3.292,0,0,3.1964,3.1971,3.2042,3.2046,3.2212,3.2226,3.2394,3.2517,3.2562,3.2706,3.2713,3.2788,3.2796,3.2858,3.302,3.3032,0,0,0,3.206,3.2111,3.2164,3.2253,3.2349,3.2435,3.2536,3.2582,3.2707,3.2628,3.2827,3.2833,3.2871,3.2896,3.2906,3.2943,3.279,3.279,3.279,3.2143,3.2197,3.232,3.2402,3.2488,3.2594,3.267,3.275,3.2778,3.2824,3.2868,3.296,3.2987,3.2996,3.3033,3.2896,3.2896,3.2896,3.2896,3.2292,3.2374,3.2412,3.2544,3.2602,3.2715,3.2821,3.2838,3.2953,3.293,3.2966,3.2938,3.3007,3.3043,3.2897,3.2897,3.2897,3.2897,3.2897,3.2354,3.2403,3.2458,3.2596,3.2696,3.2776,3.2886,3.2933,3.2979,3.3015,3.3068,3.3068,3.3076,3.3036,3.3037,3.3037,3.3037,3.3038,3.3038,3.2397,3.2459,3.2545,3.2658,3.2724,3.2817,3.2926,3.2993,3.308,3.3106,3.3107,3.3132,3.3003,3.2971,3.3043,3.3042,3.3042,3.3041,3.3041,3.2531,3.2509,3.2642,3.2708,3.2847,3.2946,3.3006,3.3139,3.3201,3.3254,3.3273,3.3169,3.318,3.3172,3.3146,3.3259,3.3259,3.3259,3.3259,3.2585,3.2595,3.2744,3.2847,3.2954,3.3023,3.3175,3.3263,3.335,3.3393,3.3383,3.3352,3.3342,3.3359,3.3347,3.3323,3.3479,3.3479,3.348,3.2672,3.2695,3.2814,3.2899,3.3013,3.311,3.3256,3.3375,3.3469,3.349,3.3428,3.3419,3.3369,3.335,3.3369,3.3349,3.3307,0,0]}]]